Location: ????
(32.1228°N, 34.8377°E)
Time: 03:36:46
(UTC+00:00)

Meteor 1-11 Rocket - Pass Details

Date: 21 September 2020
Orbit: 830 x 916 km, 81.2° (Epoch: 23 October)

Event Time Altitude Azimuth Distance (km) Brightness Sun altitude
Rises 01:36:00 0° 358° (N) 3,482 7.1 -24.3°
Reaches altitude 10° 01:38:33 10° 3° (N) 2,527 6.4 -23.7°
Maximum altitude 01:44:08 53° 79° (E) 1,048 4.5 -22.6°
Drops below altitude 10° 01:49:34 10° 156° (SSE) 2,459 6.2 -21.5°
Sets 01:52:00 0° 161° (SSE) 3,381 6.9 -21.0°
